Time,TemperatureF,DewpointF,PressureIn,WindDirection,WindDirectionDegrees,WindSpeedMPH,WindSpeedGustMPH,Humidity,HourlyPrecipIn,Conditions,Clouds,dailyrainin,SoftwareType,DateUTC
2013-07-22 00:00:00,55.0,50.0,-100.00,North,-999,-999.0,-999.0,84,-99.99,,,-99.99,,2013-07-22 07:00:00,
2013-07-22 00:53:00,55.0,50.0,-100.00,North,-999,-999.0,-999.0,84,-99.99,,,-99.99,,2013-07-22 07:53:00,
2013-07-22 02:00:00,53.0,50.0,-100.00,North,-999,-999.0,-999.0,90,-99.99,,,-99.99,,2013-07-22 09:00:00,
2013-07-22 02:52:00,53.0,50.0,-100.00,North,-999,-999.0,-999.0,90,-99.99,,,-99.99,,2013-07-22 09:52:00,
2013-07-22 04:00:00,53.0,50.0,-100.00,North,-999,-999.0,-999.0,90,-99.99,,,-99.99,,2013-07-22 11:00:00,
2013-07-22 04:52:00,53.0,50.0,-100.00,North,-999,-999.0,-999.0,90,-99.99,,,-99.99,,2013-07-22 11:52:00,
2013-07-22 05:00:00,52.0,50.0,-100.00,North,-999,-999.0,-999.0,92,-99.99,,,-99.99,,2013-07-22 12:00:00,
2013-07-22 07:00:00,52.0,49.0,-100.00,North,-999,-999.0,-999.0,90,-99.99,,,-99.99,,2013-07-22 14:00:00,
2013-07-22 08:00:00,53.0,50.0,-100.00,North,-999,-999.0,-999.0,88,-99.99,,,-99.99,,2013-07-22 15:00:00,
2013-07-22 09:00:00,55.0,50.0,-100.00,North,-999,-999.0,-999.0,84,-99.99,,,-99.99,,2013-07-22 16:00:00,
2013-07-22 09:52:00,55.0,50.0,-100.00,North,-999,-999.0,-999.0,84,-99.99,,,-99.99,,2013-07-22 16:52:00,
2013-07-22 10:00:00,59.0,51.0,-100.00,North,-999,-999.0,-999.0,75,-99.99,,,-99.99,,2013-07-22 17:00:00,
2013-07-22 10:52:00,59.0,51.0,-100.00,North,-999,-999.0,-999.0,75,-99.99,,,-99.99,,2013-07-22 17:52:00,
2013-07-22 11:00:00,65.0,50.0,-100.00,North,-999,-999.0,-999.0,59,-99.99,,,-99.99,,2013-07-22 18:00:00,
2013-07-22 12:00:00,69.0,50.0,-100.00,North,-999,-999.0,-999.0,50,-99.99,,,-99.99,,2013-07-22 19:00:00,
2013-07-22 13:00:00,72.0,47.0,-100.00,North,-999,-999.0,-999.0,41,-99.99,,,-99.99,,2013-07-22 20:00:00,
2013-07-22 14:00:00,74.0,49.0,-100.00,North,-999,-999.0,-999.0,42,-99.99,,,-99.99,,2013-07-22 21:00:00,
2013-07-22 15:00:00,75.0,50.0,-100.00,North,-999,-999.0,-999.0,42,-99.99,,,-99.99,,2013-07-22 22:00:00,
2013-07-22 16:00:00,76.0,49.0,-100.00,North,-999,-999.0,-999.0,39,-99.99,,,-99.99,,2013-07-22 23:00:00,
2013-07-22 17:00:00,76.0,51.0,-100.00,North,-999,-999.0,-999.0,42,-99.99,,,-99.99,,2013-07-23 00:00:00,
2013-07-22 18:00:00,76.0,52.0,-100.00,North,-999,-999.0,-999.0,43,-99.99,,,-99.99,,2013-07-23 01:00:00,
2013-07-22 19:00:00,74.0,50.0,-100.00,North,-999,-999.0,-999.0,43,-99.99,,,-99.99,,2013-07-23 02:00:00,
2013-07-22 20:00:00,68.0,51.0,-100.00,North,-999,-999.0,-999.0,55,-99.99,,,-99.99,,2013-07-23 03:00:00,
2013-07-22 21:00:00,62.0,52.0,-100.00,North,-999,-999.0,-999.0,69,-99.99,,,-99.99,,2013-07-23 04:00:00,
2013-07-22 21:53:00,62.0,52.0,-100.00,North,-999,-999.0,-999.0,69,-99.99,,,-99.99,,2013-07-23 04:53:00,
2013-07-22 22:00:00,59.0,51.0,-100.00,North,-999,-999.0,-999.0,76,-99.99,,,-99.99,,2013-07-23 05:00:00,
2013-07-22 23:00:00,55.0,49.0,-100.00,North,-999,-999.0,-999.0,79,-99.99,,,-99.99,,2013-07-23 06:00:00,